GFSNIL_sfc_temp_336.txt.gz
Temp
56 54 54 54 54 56 56 54 57 55 55 56 56 57 55 53 54 53 52 52 51 51
54 54 53 54 54 55 56 56 56 56 56 57 56 60 56 53 54 52 52 52 52 51
54 54 54 53 53 54 56 55 55 55 56 55 56 57 57 54 54 53 52 53 52 52
54 54 53 52 52 53 55 55 54 55 55 56 55 57 55 55 55 56 55 56 54 54
53 52 52 52 53 54 54 54 53 54 55 56 56 56 56 56 56 58 58 58 57 54
51 50 51 52 54 53 54 55 55 54 56 56 57 56 57 59 57 57 57 58 58 54
50 51 51 52 54 54 54 54 53 53 55 57 57 56 58 58 57 59 59 58 58 56
51 52 52 52 52 54 54 55 55 54 53 56 57 58 57 57 56 54 55 57 58 58
52 52 52 51 51 53 55 54 55 55 55 55 57 54 55 57 54 56 56 58 55 56
53 51 50 51 51 50 52 53 53 54 55 55 53 52 52 54 53 53 52 55 54 59
50 50 50 50 50 52 52 52 52 53 54 52 54 52 50 52 52 52 53 54 54 58
49 49 50 48 48 49 49 51 52 53 53 51 52 50 49 52 55 52 53 55 60 58
49 48 47 47 48 49 49 52 54 54 53 53 54 49 48 51 54 50 51 53 58 54
53 50 47 46 48 49 49 52 51 53 54 53 54 50 47 48 51 52 57 56 58 59

GFSNIL_sfc_temp_339.txt.gz
Temp
53 53 52 52 52 52 53 54 55 56 55 55 55 54 54 55 51 54 52 51 51 50
53 52 52 52 51 51 53 55 55 56 54 55 55 57 56 55 51 51 51 51 51 50
55 54 52 51 51 51 51 52 54 55 54 55 55 55 54 53 52 51 51 52 52 51
52 54 51 50 51 51 51 52 53 54 54 55 54 56 53 53 56 53 53 56 55 54
51 51 49 50 51 52 52 53 53 54 53 53 54 54 53 55 57 54 55 56 56 53
49 48 49 49 50 51 51 53 53 53 53 54 55 56 56 55 56 54 56 55 56 55
48 49 49 49 49 51 52 53 53 53 53 55 57 57 56 56 54 53 55 58 55 54
48 51 50 49 49 50 51 54 55 55 53 54 54 57 56 55 52 53 53 54 57 56
49 49 48 48 49 49 50 53 54 54 54 54 54 55 54 54 51 55 54 55 55 56
48 48 48 48 48 49 48 49 52 53 54 53 53 52 51 53 53 52 51 54 56 54
47 47 47 47 47 47 49 48 49 53 53 53 53 51 49 50 53 50 51 53 54 52
47 46 46 46 45 46 46 46 50 53 53 53 53 50 48 51 54 50 50 53 54 55
47 47 45 44 43 48 47 49 51 53 54 53 51 49 47 51 54 53 49 51 53 53
46 44 45 43 42 45 50 51 48 51 53 52 52 51 46 47 49 50 50 51 56 56

GFSNIL_sfc_temp_342.txt.gz
Temp
55 54 53 53 53 52 52 53 56 56 56 56 56 55 55 55 55 54 55 54 53 54
56 54 53 54 52 52 53 54 56 56 56 57 56 56 56 56 56 55 55 55 54 53
54 55 54 53 52 53 53 54 54 55 55 56 57 56 55 55 55 54 54 54 54 53
54 53 52 51 52 52 53 53 54 55 55 55 56 56 55 55 56 56 55 56 55 57
54 51 50 50 52 53 52 54 54 54 55 55 55 56 55 56 57 56 56 57 58 57
50 50 50 50 51 52 52 53 54 55 55 55 56 56 56 57 57 57 56 56 56 58
49 49 51 52 51 51 53 52 54 55 54 55 56 57 58 57 57 56 57 57 57 58
49 49 50 50 50 51 52 53 55 55 55 54 56 57 56 58 57 56 56 58 58 59
49 49 49 49 50 50 51 52 52 54 54 55 55 53 54 56 56 56 56 56 58 59
49 49 49 49 49 49 49 50 50 52 54 54 54 51 51 53 56 55 57 57 57 59
48 48 48 48 48 47 48 48 49 51 54 53 54 50 49 50 55 56 56 57 57 57
48 47 48 47 46 46 47 50 50 53 53 54 54 50 48 50 55 55 56 57 58 58
48 47 46 45 45 46 47 50 52 52 53 53 53 49 47 52 55 54 56 56 57 53
48 46 46 45 45 45 46 50 51 51 53 53 53 54 47 48 56 56 56 57 58 59

GFSNIL_sfc_temp_345.txt.gz
Temp
67 68 67 66 65 65 65 66 64 65 65 65 65 64 62 58 57 59 59 61 61 59
67 66 65 64 64 65 64 65 65 65 64 64 65 64 62 62 61 62 59 61 63 62
65 65 63 60 59 63 63 64 64 64 64 64 64 64 62 60 59 59 59 61 62 62
65 64 63 62 62 62 62 63 63 63 63 63 61 61 60 62 62 62 59 62 62 64
63 62 60 60 61 62 62 63 63 63 62 58 57 60 60 62 63 63 62 63 64 64
61 59 58 59 60 59 61 63 63 63 62 58 60 60 63 64 65 65 65 64 65 64
59 58 58 59 60 60 60 61 62 62 63 59 57 60 64 65 65 64 63 64 64 65
59 59 59 59 59 60 61 61 61 61 62 58 56 58 63 64 60 64 62 65 67 67
58 59 58 58 58 59 59 59 59 60 61 55 56 54 54 57 62 62 64 64 65 66
59 58 58 58 58 58 56 57 58 58 61 60 55 51 50 53 64 63 64 64 62 66
58 57 58 57 57 56 56 56 56 56 60 58 55 51 48 51 58 65 65 65 65 64
58 57 56 56 55 55 56 56 55 54 59 54 54 51 48 51 60 64 65 66 61 64
56 56 55 55 55 56 57 57 55 54 58 53 54 51 47 50 59 62 64 65 65 53
53 55 55 51 56 56 56 56 56 53 55 53 52 54 47 46 64 64 65 68 67 65